Palmdale, CA

11:24 PM PDT on June 24, 2017 (GMT -0700)
Palmdale Af Plant 42

Weather History for KPMD - November, 2013

Change the Weather History Date:

Thursday, November 21, 2013

  Actual Average Record
Temperature  
Mean Temperature 50 °F 50 °F  
Max Temperature 56 °F 65 °F 80 °F (1995)
Min Temperature 44 °F 35 °F 12 °F (1964)
Degree Days  
Heating Degree Days 15 16  
Month to date heating degree days 196 245  
Since 1 July heating degree days 357 372  
Cooling Degree Days 0 0  
Month to date cooling degree days 0 0  
Year to date cooling degree days 2126 1814  
Moisture  
Dew Point 46 °F    
Average Humidity 83    
Maximum Humidity 92    
Minimum Humidity 74    
Precipitation  
Precipitation 1.42 in 0.03 in 2.08 in (1967)
Month to date precipitation 1.42 0.53  
Year to date precipitation 2.49 6.98  
Since 1 July precipitation 1.63  
Snow  
Snow 0.00 in - 0.00 in (1973)
Month to date snowfall 0.0  
Since 1 July snowfall 0.0  
Since 1 September snowfall 0.0  
Snow Depth 0.00 in    
Sea Level Pressure  
Sea Level Pressure 29.87 in    
Wind  
Wind Speed 9 mph (NNW)    
Max Wind Speed 29 mph    
Max Gust Speed 35 mph    
Visibility 7 miles    
Events Rain , Thunderstorm    
T = Trace of Precipitation, MM = Missing Value Source: NWS Daily Summary

Daily Weather History Graph

Daily Weather History Graph

Search for Another Location

Airport or City:

Trip Planner

Search our weather history database for the weather conditions in past years. The results will help you decide how hot, cold, wet, or windy it might be!

Date:

Astronomy

Nov. 21, 2013 Rise Set
Actual Time 6:32 AM PST 4:44 PM PST
Civil Twilight 6:05 AM PST 5:11 PM PST
Nautical Twilight 5:34 AM PST 5:42 PM PST
Astronomical Twilight 5:04 AM PST 6:12 PM PST
Moon 8:23 PM PST (11/21) 9:42 AM PST (11/21)
Length of Visible Light 11h 06m
Length of Day
10h 12m
Waning Gibbous, 84% of the Moon is Illuminated
Nov 21
Waning Gibbous
Nov 25
Last Quarter
Dec 2
New
Dec 9
First Quarter
Dec 17
Full

Hourly Weather History & Observations

Time (PST) Temp. Windchill Dew Point Humidity Pressure Visibility Wind Dir Wind Speed Gust Speed Precip Events Conditions
12:53 AM 54.0 °F - 48.9 °F 83% 29.82 in 10.0 mi Calm Calm - N/A   Overcast
1:53 AM 53.1 °F - 48.9 °F 86% 29.81 in 10.0 mi NW 6.9 mph - 0.00 in Rain Light Rain
2:53 AM 53.1 °F - 48.9 °F 86% 29.81 in 10.0 mi NW 9.2 mph - 0.00 in   Overcast
3:53 AM 52.0 °F - 48.9 °F 89% 29.81 in 10.0 mi West 4.6 mph - 0.00 in   Overcast
4:10 AM 51.8 °F - 48.2 °F 88% 29.84 in 10.0 mi SW 3.5 mph - N/A   Overcast
4:37 AM 53.6 °F - 48.2 °F 82% 29.84 in 10.0 mi South 3.5 mph - N/A   Overcast
4:53 AM 52.0 °F - 48.9 °F 89% 29.82 in 10.0 mi SW 4.6 mph - N/A   Overcast
5:25 AM 51.8 °F - 50.0 °F 94% 29.85 in 1.8 mi WSW 5.8 mph - 0.06 in Rain Rain
5:37 AM 51.8 °F - 50.0 °F 94% 29.85 in 1.8 mi West 4.6 mph - 0.12 in Rain Heavy Rain
5:48 AM 51.8 °F - 50.0 °F 94% 29.85 in 3.0 mi West 4.6 mph - 0.15 in Rain Light Rain
5:53 AM 52.0 °F - 50.0 °F 93% 29.83 in 4.0 mi WSW 6.9 mph - 0.16 in Rain Rain
6:05 AM 51.8 °F - 50.0 °F 94% 29.86 in 4.0 mi SSW 4.6 mph - 0.02 in Rain Light Rain
6:53 AM 52.0 °F - 48.9 °F 89% 29.84 in 5.0 mi South 4.6 mph - 0.09 in Rain Light Rain
7:53 AM 52.0 °F - 50.0 °F 93% 29.85 in 10.0 mi Calm Calm - 0.05 in Rain Light Rain
8:53 AM 54.0 °F - 48.9 °F 83% 29.86 in 10.0 mi Calm Calm - 0.00 in   Overcast
9:53 AM 52.0 °F - 48.0 °F 86% 29.86 in 2.5 mi Calm Calm - 0.06 in Rain Rain
10:05 AM 51.8 °F - 48.2 °F 88% 29.88 in 5.0 mi Calm Calm - 0.00 in Rain Light Rain
10:53 AM 53.1 °F - 50.0 °F 89% 29.85 in 10.0 mi SE 5.8 mph - 0.02 in Rain Light Rain
11:53 AM 53.1 °F - 48.9 °F 86% 29.83 in 10.0 mi SSE 9.2 mph - 0.00 in   Overcast
12:07 PM 53.6 °F - 48.2 °F 82% 29.86 in 10.0 mi SSE 11.5 mph - N/A   Overcast
12:28 PM 51.8 °F - 48.2 °F 88% 29.86 in 1.8 mi South 11.5 mph 20.7 mph 0.08 in Rain Heavy Rain
12:37 PM 51.8 °F - 48.2 °F 88% 29.85 in 3.0 mi SE 9.2 mph - 0.10 in Rain Light Rain
12:53 PM 52.0 °F - 48.9 °F 89% 29.82 in 10.0 mi East 8.1 mph - 0.11 in Rain Light Rain
1:53 PM 55.9 °F - 50.0 °F 80% 29.81 in 10.0 mi ESE 10.4 mph - 0.00 in   Scattered Clouds
2:53 PM 55.9 °F - 48.9 °F 77% 29.80 in 10.0 mi SE 12.7 mph - N/A   Clear
3:53 PM 55.0 °F - 48.0 °F 77% 29.81 in 10.0 mi East 11.5 mph - N/A   Clear
4:53 PM 54.0 °F - 48.0 °F 80% 29.84 in 10.0 mi East 6.9 mph - N/A   Mostly Cloudy
5:26 PM 51.8 °F - 44.6 °F 76% 29.87 in 10.0 mi NW 9.2 mph - N/A Thunderstorm Overcast
5:53 PM 50.0 °F - 43.0 °F 77% 29.87 in 10.0 mi NW 17.3 mph - N/A   Overcast
6:17 PM 48.2 °F - 42.8 °F 82% 29.91 in 10.0 mi North 20.7 mph 26.5 mph 0.00 in Rain , Thunderstorm Light Rain
6:32 PM 46.4 °F 40.1 °F 42.8 °F 87% 29.92 in 3.0 mi NNW 15.0 mph 25.3 mph 0.14 in Rain Heavy Rain
6:41 PM 46.4 °F 39.2 °F 42.8 °F 87% 29.92 in 2.0 mi North 18.4 mph 26.5 mph 0.28 in Rain Heavy Rain
6:53 PM 45.0 °F 36.4 °F 42.1 °F 90% 29.91 in 1.8 mi North 23.0 mph 28.8 mph 0.51 in Rain Heavy Rain
7:03 PM 44.6 °F 36.9 °F 42.8 °F 93% 29.92 in 3.0 mi North 18.4 mph - 0.07 in Rain Heavy Rain
7:25 PM 44.6 °F 35.7 °F 41.0 °F 87% 29.93 in 4.0 mi North 24.2 mph 34.5 mph 0.12 in Rain Rain
7:53 PM 45.0 °F 36.9 °F 42.1 °F 90% 29.92 in 4.0 mi North 20.7 mph 33.4 mph 0.18 in Rain Rain
8:20 PM 44.6 °F 36.4 °F 41.0 °F 87% 29.93 in 1.8 mi NNE 20.7 mph 31.1 mph 0.09 in Rain Heavy Rain
8:30 PM 44.6 °F 37.2 °F 41.0 °F 87% 29.94 in 3.0 mi North 17.3 mph - 0.13 in Rain Rain
8:53 PM 44.1 °F 37.7 °F 41.0 °F 89% 29.94 in 6.0 mi North 12.7 mph 21.9 mph 0.18 in Rain Rain
9:01 PM 44.6 °F 38.4 °F 41.0 °F 87% 29.95 in 6.0 mi North 12.7 mph - 0.00 in Rain Light Rain
9:53 PM 44.1 °F 39.0 °F 42.1 °F 93% 29.95 in 7.0 mi NNW 9.2 mph - 0.02 in Rain Light Rain
10:53 PM 44.1 °F 38.6 °F 41.0 °F 89% 29.96 in 10.0 mi North 10.4 mph - 0.02 in   Overcast
11:51 PM 44.6 °F 40.2 °F 39.2 °F 81% 29.97 in 9.0 mi North 8.1 mph - 0.02 in Rain Light Rain
11:53 PM 44.1 °F 39.0 °F 39.0 °F 82% 29.96 in 9.0 mi North 9.2 mph - 0.02 in Rain Light Rain